Location: Amherst
(42.5000°N, 72.5000°W)
Time: 19:26:30
(UTC-04:00)

ISS - Pass Details

Date: 15 July 2018
Orbit: 402 x 408 km, 51.6° (Epoch: 22 July)

Event Time Altitude Azimuth Distance (km) Brightness Sun altitude
Exits shadow 00:27:35 11° 55° (NE) 1,429 -0.8 -25.6°
Drops below altitude 10° 00:27:41 10° 55° (NE) 1,468 -0.7 -25.6°
Sets 00:29:47 0° 56° (NE) 2,333 0.4 -25.7°
